Stanley, ND

2:57 AM CDT on May 24, 2017 (GMT -0500)
Stanley

Weather History for K08D - January, 2013

Change the Weather History Date:

Saturday, January 26, 2013

  Actual Average (KMIB) Record (KMIB)
Temperature  
Mean Temperature 19 °F -  
Max Temperature 32 °F 17 °F 44 °F (2006)
Min Temperature 6 °F 1 °F -31 °F (1997)
Degree Days  
Heating Degree Days 46    
Moisture  
Dew Point 16 °F    
Average Humidity 88    
Maximum Humidity 100    
Minimum Humidity 74    
Precipitation  
Precipitation 0.00 in - - ()
Sea Level Pressure  
Sea Level Pressure 29.85 in    
Wind  
Wind Speed 5 mph (SE)    
Max Wind Speed 13 mph    
Max Gust Speed -    
Visibility 10 miles    
Events      
Averages and records for this station are not official NWS values.
T = Trace of Precipitation, MM = Missing Value Source: NWS Daily Summary

Daily Weather History Graph

Daily Weather History Graph

Search for Another Location

Airport or City:

Trip Planner

Search our weather history database for the weather conditions in past years. The results will help you decide how hot, cold, wet, or windy it might be!

Date:

Astronomy

Jan. 26, 2013 Rise Set
Actual Time 8:25 AM CST 5:39 PM CST
Civil Twilight 7:51 AM CST 6:14 PM CST
Nautical Twilight 7:13 AM CST 6:52 PM CST
Astronomical Twilight 6:36 AM CST 7:28 PM CST
Moon 5:41 PM CST (1/26) 7:41 AM CST (1/26)
Length of Visible Light 10h 22m
Length of Day
9h 14m
Full, 100% of the Moon is Illuminated
Jan 26
Full
Jan 26
Full
Feb 3
Last Quarter
Feb 10
New
Feb 17
First Quarter

Hourly Weather History & Observations

Time (CST) Temp. Windchill Dew Point Humidity Pressure Visibility Wind Dir Wind Speed Gust Speed Precip Events Conditions
12:15 AM 8.6 °F -7.0 °F 5.0 °F 85% 29.92 in - SSE 12.7 mph - N/A   Unknown
12:35 AM 8.6 °F -3.7 °F 5.0 °F 85% 29.92 in - SSE 8.1 mph - N/A   Unknown
12:55 AM 8.6 °F -2.6 °F 5.0 °F 85% 29.92 in 10.0 mi SSE 6.9 mph - N/A   Scattered Clouds
1:15 AM 6.8 °F -5.9 °F 5.0 °F 92% 29.91 in 10.0 mi SE 8.1 mph - N/A   Partly Cloudy
1:35 AM 6.8 °F -3.5 °F 5.0 °F 92% 29.90 in 10.0 mi ESE 5.8 mph - N/A   Clear
1:55 AM 6.8 °F -6.9 °F 5.0 °F 92% 29.90 in 10.0 mi SE 9.2 mph - N/A   Clear
2:15 AM 6.8 °F -5.9 °F 3.2 °F 85% 29.89 in 10.0 mi SE 8.1 mph - N/A   Clear
2:35 AM 6.8 °F -2.0 °F 5.0 °F 92% 29.89 in 10.0 mi SE 4.6 mph - N/A   Clear
2:55 AM 6.8 °F -4.8 °F 5.0 °F 92% 29.88 in 10.0 mi SSE 6.9 mph - N/A   Clear
3:15 AM 6.8 °F -2.0 °F 5.0 °F 92% 29.88 in 10.0 mi South 4.6 mph - N/A   Clear
3:35 AM 8.6 °F 2.0 °F 5.0 °F 85% 29.88 in 10.0 mi SE 3.5 mph - N/A   Clear
3:55 AM 8.6 °F -1.3 °F 5.0 °F 85% 29.87 in 10.0 mi SSE 5.8 mph - N/A   Partly Cloudy
4:15 AM 8.6 °F - 5.0 °F 85% 29.88 in 10.0 mi Calm Calm - N/A   Mostly Cloudy
4:35 AM 8.6 °F 2.0 °F 6.8 °F 92% 29.87 in 10.0 mi SSW 3.5 mph - N/A   Overcast
4:55 AM 10.4 °F 4.0 °F 6.8 °F 85% 29.86 in 10.0 mi SSW 3.5 mph - N/A   Overcast
5:15 AM 10.4 °F 2.2 °F 8.6 °F 92% 29.86 in 10.0 mi SW 4.6 mph - N/A   Overcast
5:35 AM 10.4 °F 4.0 °F 8.6 °F 92% 29.85 in 10.0 mi SW 3.5 mph - N/A   Overcast
5:55 AM 14.0 °F - 10.4 °F 86% 29.85 in 10.0 mi Calm Calm - N/A   Overcast
6:15 AM 14.0 °F 6.5 °F 12.2 °F 93% 29.84 in 10.0 mi South 4.6 mph - N/A   Overcast
6:35 AM 15.8 °F - 12.2 °F 86% 29.85 in 10.0 mi Calm Calm - N/A   Mostly Cloudy
6:55 AM 15.8 °F - 14.0 °F 93% 29.85 in 10.0 mi Calm Calm - N/A   Partly Cloudy
7:15 AM 15.8 °F 10.2 °F 14.0 °F 93% 29.84 in 10.0 mi SSE 3.5 mph - N/A   Partly Cloudy
7:35 AM 15.8 °F - 14.0 °F 93% 29.85 in 10.0 mi Calm Calm - N/A   Scattered Clouds
7:55 AM 15.8 °F - 14.0 °F 93% 29.85 in 10.0 mi Calm Calm - N/A   Partly Cloudy
8:15 AM 15.8 °F 10.2 °F 14.0 °F 93% 29.86 in 10.0 mi NNE 3.5 mph - N/A   Clear
8:35 AM 15.8 °F - 14.0 °F 93% 29.86 in 10.0 mi Calm Calm - N/A   Clear
8:55 AM 15.8 °F - 14.0 °F 93% 29.86 in 10.0 mi Calm Calm - N/A   Mostly Cloudy
9:15 AM 15.8 °F - 14.0 °F 93% 29.86 in 10.0 mi Calm Calm - N/A   Overcast
9:35 AM 15.8 °F - 14.0 °F 93% 29.85 in 10.0 mi Calm Calm - N/A   Overcast
9:55 AM 17.6 °F - 14.0 °F 86% 29.85 in 10.0 mi Calm Calm - N/A   Mostly Cloudy
10:15 AM 19.4 °F 12.8 °F 15.8 °F 86% 29.85 in 10.0 mi SSW 4.6 mph - N/A   Partly Cloudy
10:35 AM 19.4 °F 14.3 °F 17.6 °F 93% 29.86 in 10.0 mi NW 3.5 mph - N/A   Clear
10:55 AM 23.0 °F - 17.6 °F 80% 29.86 in 10.0 mi Calm Calm - N/A   Clear
11:15 AM 23.0 °F - 17.6 °F 80% 29.86 in 10.0 mi Calm Calm - N/A   Partly Cloudy
11:35 AM 23.0 °F 18.4 °F 19.4 °F 86% 29.86 in 10.0 mi SE 3.5 mph - N/A   Mostly Cloudy
11:55 AM 24.8 °F 20.5 °F 19.4 °F 80% 29.87 in 10.0 mi NE 3.5 mph - N/A   Mostly Cloudy
12:15 PM 26.6 °F - 21.2 °F 80% 29.86 in 10.0 mi Calm Calm - N/A   Mostly Cloudy
12:35 PM 28.4 °F 22.2 °F 21.2 °F 74% 29.86 in 10.0 mi North 5.8 mph - N/A   Mostly Cloudy
12:55 PM 26.6 °F - 21.2 °F 80% 29.86 in 10.0 mi Calm Calm - N/A   Scattered Clouds
1:15 PM 28.4 °F - 23.0 °F 80% 29.85 in 10.0 mi Calm Calm - N/A   Mostly Cloudy
1:35 PM 30.2 °F - 23.0 °F 75% 29.85 in 10.0 mi Calm Calm - N/A   Overcast
1:55 PM 30.2 °F 23.4 °F 24.8 °F 80% 29.83 in 10.0 mi SE 6.9 mph - N/A   Mostly Cloudy
2:15 PM 30.2 °F 26.7 °F 24.8 °F 80% 29.83 in 10.0 mi SE 3.5 mph - N/A   Partly Cloudy
2:35 PM 30.2 °F 25.4 °F 24.8 °F 80% 29.82 in 10.0 mi ESE 4.6 mph - N/A   Partly Cloudy
2:55 PM 30.2 °F 24.3 °F 24.8 °F 80% 29.82 in 10.0 mi SE 5.8 mph - N/A   Clear
3:15 PM 32.0 °F 26.4 °F 24.8 °F 75% 29.81 in 10.0 mi SSE 5.8 mph - N/A   Scattered Clouds
3:35 PM 32.0 °F 27.5 °F 26.6 °F 80% 29.81 in 10.0 mi SE 4.6 mph - N/A   Mostly Cloudy
3:55 PM 32.0 °F - 26.6 °F 80% 29.82 in 10.0 mi Calm Calm - N/A   Mostly Cloudy
4:15 PM 32.0 °F 27.5 °F 26.6 °F 80% 29.82 in 10.0 mi SE 4.6 mph - N/A   Mostly Cloudy
4:35 PM 32.0 °F 28.7 °F 26.6 °F 80% 29.83 in 10.0 mi ESE 3.5 mph - N/A   Mostly Cloudy
4:55 PM 32.0 °F 26.4 °F 26.6 °F 80% 29.83 in 10.0 mi NE 5.8 mph - N/A   Overcast
5:15 PM 30.2 °F 23.4 °F 26.6 °F 86% 29.83 in 10.0 mi ENE 6.9 mph - N/A   Overcast
5:35 PM 28.4 °F 22.2 °F 24.8 °F 86% 29.83 in 10.0 mi East 5.8 mph - N/A   Overcast
5:55 PM 28.4 °F 21.2 °F 24.8 °F 86% 29.83 in 10.0 mi ENE 6.9 mph - N/A   Overcast
6:15 PM 26.6 °F 17.5 °F 24.8 °F 93% 29.83 in 10.0 mi NE 9.2 mph - N/A   Overcast
6:35 PM 24.8 °F 16.9 °F 23.0 °F 93% 29.83 in 10.0 mi ENE 6.9 mph - N/A   Overcast
6:55 PM 23.0 °F 15.8 °F 23.0 °F 100% 29.84 in 10.0 mi ENE 5.8 mph - N/A   Overcast
7:15 PM 23.0 °F 17.0 °F 21.2 °F 93% 29.84 in 10.0 mi East 4.6 mph - N/A   Overcast
7:35 PM 23.0 °F 13.1 °F 21.2 °F 93% 29.84 in 10.0 mi ESE 9.2 mph - N/A   Overcast
7:55 PM 23.0 °F 13.9 °F 23.0 °F 100% 29.84 in 10.0 mi SE 8.1 mph - N/A   Overcast
8:15 PM 23.0 °F 13.9 °F 19.4 °F 86% 29.84 in 10.0 mi ESE 8.1 mph - N/A   Overcast
8:35 PM 23.0 °F 14.7 °F 19.4 °F 86% 29.84 in 10.0 mi East 6.9 mph - N/A   Overcast
8:55 PM 21.2 °F 13.6 °F 19.4 °F 93% 29.83 in 10.0 mi ESE 5.8 mph - N/A   Mostly Cloudy
9:15 PM 19.4 °F 12.8 °F 17.6 °F 93% 29.83 in 10.0 mi SE 4.6 mph - N/A   Partly Cloudy
9:35 PM 19.4 °F 11.5 °F 17.6 °F 93% 29.83 in 10.0 mi SE 5.8 mph - N/A   Clear
9:55 PM 17.6 °F 9.3 °F 17.6 °F 100% 29.83 in 10.0 mi SE 5.8 mph - N/A   Clear
10:15 PM 17.6 °F 12.3 °F 17.6 °F 100% 29.83 in 10.0 mi ESE 3.5 mph - N/A   Clear
10:35 PM 17.6 °F 12.3 °F 15.8 °F 93% 29.83 in 10.0 mi SSE 3.5 mph - N/A   Clear
10:55 PM 17.6 °F 9.3 °F 15.8 °F 93% 29.83 in 10.0 mi SE 5.8 mph - N/A   Clear
11:15 PM 15.8 °F 5.1 °F 15.8 °F 100% 29.83 in 10.0 mi SE 8.1 mph - N/A   Clear
11:35 PM 15.8 °F 8.6 °F 14.0 °F 93% 29.83 in 10.0 mi SE 4.6 mph - N/A   Clear
11:55 PM 15.8 °F 10.2 °F 14.0 °F 93% 29.82 in 10.0 mi ESE 3.5 mph - N/A   Clear